www.pogodaiklimat.ru

Погода и климат >> Архив погоды >> Индия >> Churu


ПОГОДА в Churu

  • Прогноз погоды в Churu
  • Монитор погоды в Churu
  • Климат города

АРХИВ ПОГОДЫ в Churu

Время (UTC), дата Ветер
(напр.,м/с)
 
Видим.   Явления Облачность Т
(С)
Тd
(С)
f
(%)
Тe
(С)
Тes
(С)
Комфортность P
(гПа)
Po
(гПа)
Тmin
(С)
Tmax
(С)
R
(мм)
R24
(мм)
S
(см)
06 19.05 ЮЗ 2 4000 м ясно +40.4 +19.7 30 +45 +67 опасность
перегрева
1002.1 1002.0
12 19.05 ЮЗ 1 4000 м гроза, ливневой дождь 10/10 1050 м
[Cb calv]
+30.0 +16.3 44 +33 +33 душно 1005.6 1006.0 +44.3 6
15 19.05 С 2 4000 м гроза, ливневой дождь 8/5 1050 м
[Cb calv Ac trans]
+30.2 +13.6 36 +32 +32 жарко 1004.6 1005.0 8
18 19.05 штиль 0 4000 м гроза, ливневой дождь 9/5 1050 м
[Cb calv Ac trans]
+30.4 +15.0 39 +33 +33 душно 1001.1 1001.0 8
00 20.05 штиль 0 1000 м мгла {гроза, дождь} 5/3 1200 м
[Sc Ac trans]
+26.8 +14.5 47 +29 +29 жарко 1002.9 1003.0 8
03 20.05 В 1 2000 м мгла ясно +29.0 +18.1 52 +34 +43 очень
душно
1004.4 1004.0 +25.6 +44.3 8
06 20.05 З 2 2000 м мгла 6/0
[Ci fib]
+36.0 +15.4 29 +38 +56 опасность
солнечного
удара
1003.5 1004.0
09 20.05 ЮЗ 1 2000 м мгла ясно +40.4 +13.4 20 +40 +60 опасность
солнечного
удара
1000.1 1000.0
12 20.05 З 1 2000 м мгла ясно +40.0 +14.7 23 +41 +45 опасность
перегрева
998.1 998.0 +41.0
15 20.05 штиль 0 4000 м ясно +34.6 +19.5 41 +40 +40 очень
душно
998.6 999.0
18 20.05 штиль 0 4000 м ясно +32.2 +21.2 52 +40 +40 очень
душно
999.0 999.0
21 20.05 ЮЗ 3 4000 м ясно +31.4 +15.3 38 +34 +34 душно 999.6 1000.0
00 21.05 СЗ 2 4000 м 5/5 1200 м
[Sc]
+27.4 +14.0 44 +30 +30 жарко 1002.7 1003.0
03 21.05 ЮЗ 2 4000 м 6/4 1200 м
[Sc Ci fib]
+29.4 +15.0 42 +32 +36 душно 1003.5 1004.0 +25.5 +41.0
06 21.05 ЮВ 1 4000 м 5/5 1200 м
[Sc]
+35.2 +15.1 30 +37 +50 очень
душно
1001.0 1001.0
09 21.05 ЮВ 2 2000 м мгла 4/1 1200 м
[Sc Ac trans]
+39.0 +12.5 21 +39 +52 опасность
солнечного
удара
998.4 998.0
12 21.05 З 2 1000 м мгла 4/0
[Ac trans Ci fib]
+36.6 +14.5 27 +38 +41 очень
душно
998.7 999.0 +40.5
15 21.05 штиль 0 2000 м мгла 4/0
[Ci fib]
+32.2 +17.2 41 +36 +36 очень
душно
1001.0 1001.0
18 21.05 З 4 500 м пыльная буря {туман} ?/? +27.6 +17.5 54 +32 +32 очень
душно
1005.1 1005.0
21 21.05 штиль 0 1000 м мгла ясно +26.2 +16.1 54 +30 +30 душно 1003.1 1003.0
00 22.05 штиль 0 2000 м мгла 5/5 1200 м
[Sc]
+25.6 +16.2 56 +29 +29 душно 1003.0 1003.0
03 22.05 З 2 4000 м 8/8 1200 м
[Sc]
+27.2 +15.4 48 +30 +32 душно 1006.4 1006.0 +25.0 +40.5
06 22.05 З 2 4000 м 4/1 1200 м
[Sc Ac trans]
+32.6 +15.2 35 +35 +51 опасность
солнечного
удара
1006.2 1006.0
09 22.05 С 2 4000 м 3/0
[Ci fib]
+37.8 +15.4 27 +39 +57 опасность
солнечного
удара
1003.9 1004.0
12 22.05 СЗ 2 4000 м 3/3 1200 м
[Sc]
+38.0 +13.8 24 +38 +41 очень
жарко
1001.9 1002.0 +39.0
15 22.05 штиль 0 4000 м ясно +33.6 +16.8 37 +37 +37 очень
душно
1003.6 1004.0
18 22.05 ЮЗ 1 4000 м ясно +31.4 +16.5 41 +35 +35 очень
душно
1004.5 1005.0
21 22.05 З 1 4000 м ясно +29.0 +16.1 46 +32 +32 душно 1004.3 1004.0
00 23.05 штиль 0 4000 м ясно +27.0 +18.2 59 +32 +32 очень
душно
1004.9 1005.0
03 23.05 штиль 0 4000 м 5/5 1200 м
[Sc]
+32.0 +16.9 40 +35 +40 очень
душно
1006.1 1006.0 +27.0 +39.0
06 23.05 СЗ 1 4000 м 6/3 1200 м
[Sc Ac trans]
+38.4 +15.9 27 +40 +53 опасность
солнечного
удара
1005.1 1005.0
09 23.05 СЗ 2 4000 м 5/5 1200 м
[Sc]
+41.2 +14.8 21 +42 +50 опасность
перегрева
1001.9 1002.0
12 23.05 З 2 4000 м 5/5 1200 м
[Sc]
+40.6 +16.6 25 +43 +45 опасность
перегрева
999.3 999.0 +42.2
15 23.05 штиль 0 4000 м 1/1 1200 м
[Sc]
+36.4 +17.2 32 +39 +39 очень
душно
1001.0 1001.0
18 23.05 штиль 0 4000 м 1/1 1200 м
[Sc]
+33.4 +19.9 45 +39 +39 очень
душно
1002.4 1002.0
21 23.05 штиль 0 4000 м ясно +30.4 +20.8 57 +38 +38 очень
душно
1001.7 1002.0
00 24.05 штиль 0 4000 м ясно +29.2 +20.4 59 +36 +36 очень
душно
1002.8 1003.0
03 24.05 СЗ 2 4000 м 4/0
[Ci fib]
+33.0 +19.4 45 +39 +46 очень
душно
1003.1 1003.0 +28.1 +42.2
06 24.05 С 1 4000 м 5/0
[Ci fib]
+40.4 +14.4 22 +41 +63 опасность
перегрева
1002.2 1002.0
09 24.05 СЗ 1 4000 м 3/1 1200 м
[Sc Ci fib]
+43.2 +12.1 16 +42 +60 опасность
перегрева
999.5 1000.0
12 24.05 СЗ 1 4000 м 4/0
[Ci fib]
+42.8 +9.5 14 +41 +45 опасность
перегрева
997.3 997.0 +44.0
15 24.05 ЮЗ 5 2000 м пыльный позёмок 5/0
[Ci fib]
+35.0 +13.8 28 +36 +36 очень
жарко
1000.1 1000.0
18 24.05 штиль 0 4000 м 3/0
[Ci fib]
+31.6 +17.2 42 +35 +35 очень
душно
1001.6 1002.0
21 24.05 штиль 0 4000 м 1/0
[Ci fib]
+29.8 +17.6 48 +34 +34 очень
душно
1000.3 1000.0
00 25.05 штиль 0 4000 м 4/4 1200 м
[Sc]
+28.0 +16.8 51 +32 +32 душно 1001.5 1002.0
03 25.05 ЮЗ 1 4000 м 1/1 1200 м
[Sc]
+33.6 +17.8 39 +37 +45 очень
душно
1002.3 1002.0 +27.2 +44.0
06 25.05 ЮЗ 1 4000 м ясно +42.4 +14.3 19 +43 +67 опасность
перегрева
1001.0 1001.0
09 25.05 ЮЗ 2 4000 м 5/5 1050 м
[Cu Sc]
+44.6 +11.4 14 +43 +53 опасность
перегрева
998.1 998.0
12 25.05 ЮЗ 2 4000 м 1/1 1050 м
[Cu Sc]
+42.8 +11.3 16 +42 +45 опасность
перегрева
996.4 996.0 +45.5
15 25.05 штиль 0 4000 м ясно +37.8 +16.7 29 +40 +40 очень
душно
997.7 998.0
18 25.05 штиль 0 4000 м ясно +33.6 +17.0 37 +37 +37 очень
душно
999.6 1000.0
21 25.05 штиль 0 4000 м ясно +31.2 +16.6 42 +35 +35 очень
душно
998.6 999.0
00 26.05 штиль 0 4000 м ясно +29.4 +17.1 48 +33 +33 душно 1000.8 1001.0
03 26.05 ЮЗ 2 4000 м ясно +36.0 +17.5 34 +39 +48 очень
душно
1000.2 1000.0 +28.6 +45.5

 

Местоположение метеостанции Churu (Rajasthan, Индия): широта 28.25 долгота 74.92 высота над уровнем моря 291 м.

В архиве по умолчанию представлена погода в Churu за последнюю неделю. Архивные данные за месяц целиком и за предыдущие месяцы, начиная с января 2011 года, Вы можете получить, выбрав интересующий диапазон дат из раскрывающегося списка и нажав кнопку "Ввод!".

Внимание! Время в таблицах - всемирное. Для получения местного времени необходимо прибавить поправку, которая в Churu равна 5.5 ч.

Смотрите также архив погоды в соседних городах и на ближайших метеорологических станциях:

Погода в Pilani (Rajasthan, Индия) (65 км)
Погода в Hissar (Haryana, Индия) (129 км)
Погода в Bikaner (Rajasthan, Индия) (161 км)
Погода в Jaipur (Rajasthan, Индия) (181 км)
Погода в Ajmer (Rajasthan, Индия) (202 км)
Погода в Sri Ganganagar (Rajasthan, Индия) (212 км)
Погода в New Delhi Aya Nagar (Delhi, Индия) (218 км)
Погода в New Delhi Airport (Delhi, Индия) (218 км)
Погода в New Delhi (Delhi, Индия) (226 км)
Погода в Ridge (Delhi, Индия) (235 км)

Пояснения к столбцам:

Ветер - указаны скорость ветра в м/с - средняя за 10 мин, порывы в срок и между сроками (в фигурных скобках) и направление, откуда дует ветер: С - северный, СВ - северо-восточный, В - восточный, ЮВ - юго-восточный, Ю - южный, ЮЗ - юго-западный, З - западный, СЗ - северо-западный.
Видимость - горизонтальная дальность видимости в метрах или километрах. При видимости от 1 до 10 км при отсутствии осадков обычно наблюдается дымка, при ухудшении видимости до 1 км и менее - туман. В сухую погоду видимость может ухудшаться дымом, пылью или мглою.
Явления - указаны атмосферные явления, наблюдавшиеся в срок или в последний час перед сроком; фигурными скобками обозначены явления, наблюдавшиеся между сроками (за 1-3 часа до срока); квадратными скобками обозначены град или гололедные отложения с указанием их диаметра в мм.
Облачность - указаны через наклонную черту общая и нижняя облачность в баллах и высота нижней границы облаков в метрах; квадратными скобками обозначены формы облаков: Ci - перистые, Cs - перисто-слоистые, Cc - перисто-кучевые, Ac - высококучевые, As - высокослоистые, Sc - слоисто-кучевые, Ns - слоисто-дождевые, Cu - кучевые, Cb - кучево-дождевые. Подробнее классификацию облаков см. в Атласе облаков (PDF).
T - Температура воздуха - температура, измеренная на высоте 2 м над землей.
Td - Температура точки росы - температура, при понижении до которой содержащийся в воздухе водяной пар достигнет насыщения.
f - Относительная влажность воздуха - влажноcть воздуха, измеренная на высоте 2 м над землей.
Te - Эффективная температура - температура, которую ощущает одетый по сезону человек в тени. Характеристика душности погоды. При расчете учитывается влияние влажности воздуха и скорости ветра на теплоощущения человека.
Tes - Эффективная температура на солнце - температура, которую ощущает человек, с поправкой на солнечный нагрев. Характеристика знойности погоды. Зависит от высоты солнца над горизонтом, облачности и скорости ветра. Ночью, в пасмурную погоду, а также при ветре 12 м/с и более поправка равна нулю.
P - Атмосферное давление - приведенное к уровню моря атмосферное давление.
Po - Атмосферное давление - измеренное на уровне метеостанции атмосферное давление.
Tmin - Минимальная температура - минимум температуры воздуха на высоте 2 м над землей.
Tmax - Максимальная температура - максимум температуры воздуха на высоте 2 м над землей.
R - Количество осадков - Количество выпавших осадков за период времени, мм. При наведении курсора мыши на число - период времени, за который выпало указанное количество осадков.
R24 - Количество осадков - Количество выпавших осадков за 24 часа, мм.
S - Снежный покров - Высота снежного покрова, см. При наведении курсора мыши на число - состояние снежного покрова и степень покрытия местности в баллах.